User: anonymous   Login
Location: Unspecified
(0.0000°N, 0.0000°E)
Time: 03:23:28
(UTC+01:00)
Language:

Delta 2 Rocket - Orbit

View from above orbital plane
View from above orbital plane
View from above satellite
View from above satellite

Ground track
Ground track

The orbit data is extracted from the following two-line orbital elements,

1 20453U 90008B   18052.87097819 +.00000907 +00000-0 +55388-4 0  9995
2 20453 035.6231 202.4611 0285908 086.1248 277.2099 14.83880836485308
Epoch (UTC): 21 February 2018 20:54:12
Eccentricity: 0.0285908
inclination: 35.6231°
perigee height: 417 km
apogee height: 817 km
right ascension of ascending node: 202.4611°
argument of perigee: 86.1248°
revolutions per day: 14.83880836
mean anomaly at epoch: 277.2099°
orbit number at epoch: 48530

The dashed part of the orbit path shows where the satellite is in the earth's shadow,  

DLR